[[{"header":{"parameterUnit":"m.s-1","parameterCategory":2,"la1":30.2991,"la2":30.254,"lo1":-89.0895,"lo2":-89.0444,"dy":0.0017,"dx":0.0017,"nx":28,"ny":28,"refTime":"2024-06-19T21:00:00:Z","depth":"0","parameterNumber":2,"parameterNumberName":"U-component_of_CURRENTS"},"data":[0,0,0,0,0,0,0,0,0,0,0,0,0,0,0,0,0,0,0,0,0,0,0,0,0,0,0,0,0,0,0,0,0,0,0,0,0,0,0,0,0,0,0,0,0,0,0,0,0,0,0,0,0,0,0,0,0,0,0.2504,0.2504,0,0.2446,0.2445,0.2445,0.2414,0.2414,0.2414,0.2414,0.2382,0.2381,0.2381,0,0,0,0,0,0,0,0,0,0,0,0,0,0.2889,0.2881,0.2504,0.2504,0.2503,0.2446,0.2445,0.2445,0.2414,0.2414,0.2414,0.2414,0.2382,0.2381,0.238,0,0,0,0,0,0,0,0,0,0,0,0,0,0.2765,0.2878,0.2505,0.2481,0.2479,0.2446,0.2445,0.2444,0.2414,0.2414,0.2414,0.2414,0.2383,0.2382,0.238,0.2373,0,0,0.2376,0.2376,0,0,0,0,0,0,0,0,0.2771,0.275,0.2485,0.2483,0.248,0.2438,0.257,0.2422,0.2414,0.2438,0.2414,0.2414,0.2403,0.24,0.2389,0.2371,0.237,0.2376,0.2376,0.2375,0.2375,0,0,0,0,0,0,0,0.278,0.2755,0.2481,0.2485,0.2481,0.2577,0.2556,0.2543,0.2422,0.2436,0.2434,0.2428,0.2402,0.239,0.2388,0.237,0.2376,0.2375,0.2374,0.2374,0.2385,0.2386,0,0,0,0,0,0,0.277,0.276,0.2483,0.2479,0.2629,0.2569,0.2546,0.2451,0.2421,0.2417,0.2428,0.2427,0.2392,0.2389,0.2387,0.2404,0.2375,0.2374,0.2373,0.2384,0.2385,0.2386,0,0,0,0,0,0,0.2777,0.2742,0.2485,0.2626,0.26,0.256,0.2455,0.245,0.2443,0.2415,0.2411,0.2427,0.2392,0.2388,0.2386,0.2402,0.2373,0.2372,0.2382,0.2384,0.2385,0.2422,0,0,0,0,0,0,0.2786,0.2742,0.2689,0.2621,0.2591,0.2472,0.2455,0.2449,0.2439,0.2437,0.2413,0.241,0.2392,0.2388,0.2385,0.24,0.2371,0.2381,0.2383,0.2385,0.242,0.2425,0.2429,0,0,0,0,0,0.2799,0.2702,0.2684,0.2654,0.2508,0.2473,0.2467,0.2444,0.2439,0.2437,0.2426,0.2411,0.2398,0.2388,0.2383,0.2398,0.238,0.2383,0.2385,0.2417,0.2424,0.2429,0,0,0,0,0,0,0.283,0.2689,0.2668,0.2528,0.2516,0.2468,0.2457,0.245,0.2438,0.2437,0.2416,0.2412,0.2424,0.2406,0.2394,0.241,0.239,0.2391,0.2416,0.2422,0.2427,0.2442,0.237,0,0,0,0,0,0.2814,0.2702,0.2635,0.2534,0.2526,0.2502,0.249,0.2477,0.2453,0.2447,0.2433,0.2425,0.2429,0.2421,0.242,0.2417,0.2426,0.2427,0.2432,0.2436,0.2447,0.2482,0.2491,0.2394,0.2394,0.2394,0,0,0.2786,0.271,0.2638,0.2539,0.2523,0.251,0.2493,0.2469,0.247,0.2446,0.2443,0.2444,0.2436,0.2441,0.2444,0.2426,0.2469,0.2439,0.2442,0.2452,0.2486,0.2495,0.2504,0.2395,0.2395,0.2395,0,0,0.2732,0.2628,0.2553,0.2547,0.2527,0.2516,0.2515,0.2483,0.2482,0.2481,0.2477,0.249,0.2473,0.2478,0.2478,0.2508,0.2502,0.2506,0.2529,0.2562,0.2571,0.2578,0.2601,0.261,0.2497,0.2497,0.2497,0,0.2716,0.2605,0.2545,0.2524,0.2525,0.2521,0.2512,0.2508,0.2487,0.25,0.2487,0.2506,0.2496,0.2521,0.253,0.252,0.2533,0.2505,0.2569,0.2577,0.2584,0.2605,0.2615,0.2499,0.2499,0.2499,0.2499,0,0.2642,0.2583,0.2555,0.2509,0.2513,0.2498,0.2503,0.2515,0.2521,0.2526,0.2558,0.2552,0.2566,0.2566,0.2553,0.26,0.2592,0.258,0.2554,0.2596,0.2615,0.2625,0.2502,0.2501,0.2501,0.25,0,0,0.2501,0.2496,0.2488,0.2502,0.2508,0.2496,0.2523,0.2544,0.2564,0.2573,0.2603,0.2619,0.263,0.2632,0.2626,0.2646,0.2703,0.2632,0.2632,0.2653,0.2774,0.2741,0.2748,0.2701,0.2703,0.2704,0.2767,0,0.247,0.2451,0.2451,0.2457,0.2459,0.2493,0.2516,0.2547,0.2575,0.2605,0.2633,0.2655,0.2649,0.2656,0.2685,0.2704,0.273,0.2687,0.2731,0.2733,0.2698,0.2759,0.2655,0.27,0.2776,0.2777,0.2779,0,0.2398,0.2405,0.2409,0.2454,0.2455,0.2464,0.2521,0.2543,0.2606,0.2632,0.2681,0.2698,0.2748,0.2724,0.2797,0.277,0.2782,0.2789,0.2792,0.2757,0.2718,0.2671,0.2714,0.2633,0.2793,0.2792,0.2791,0,0.2356,0.2369,0.2381,0.2391,0.2438,0.2457,0.2488,0.2552,0.2591,0.2653,0.2695,0.2748,0.2788,0.2818,0.2855,0.2827,0.293,0.2887,0.2872,0.2869,0.2788,0.2775,0.2757,0.2942,0.2942,0.2942,0.2942,0,0.2311,0.2314,0.2362,0.2365,0.2388,0.2433,0.2471,0.2515,0.2595,0.2645,0.2706,0.276,0.2817,0.2882,0.2886,0.2927,0.2964,0.2898,0.2893,0.2797,0.2784,0.2714,0.2669,0.2944,0.2944,0.2943,0.2943,0,0.2255,0.2285,0.2299,0.2351,0.2367,0.2383,0.2464,0.2494,0.2582,0.2655,0.268,0.2798,0.2878,0.2934,0.2993,0.2976,0.2908,0.3,0.2882,0.2862,0.2733,0.2693,0.2573,0.2494,0.2976,0.2976,0.2975,0,0.2224,0.2228,0.2277,0.2289,0.2308,0.2349,0.2377,0.247,0.2515,0.267,0.2698,0.2823,0.2886,0.2988,0.299,0.301,0.2907,0.2907,0.2829,0.2732,0.2685,0.2557,0.2489,0.2735,0.2733,0.2731,0.2729,0,0.2177,0.2195,0.2216,0.2242,0.2263,0.2289,0.2343,0.2384,0.2495,0.2565,0.2669,0.2738,0.2873,0.2863,0.2919,0.2909,0.2744,0.2869,0.2802,0.2531,0.2357,0.2276,0.2684,0.2713,0.2715,0.2716,0.2717,0.2718,0.2144,0.2144,0.2174,0.2182,0.2206,0.2213,0.2204,0.2274,0.2329,0.2412,0.2563,0.263,0.2723,0.279,0.2767,0.2672,0.2641,0.256,0.2534,0.2423,0.2299,0.2674,0.2675,0.2676,0.2677,0.2678,0.2679,0,0.2094,0.2099,0.2112,0.2109,0.2086,0.2127,0.2155,0.2131,0.2138,0.2271,0.2347,0.2461,0.2463,0.2514,0.2484,0.236,0.2231,0.2268,0.2065,0.2026,0.2398,0.2342,0.223,0.223,0.223,0.223,0.223,0.223,0.2071,0.2054,0.2048,0.1982,0.1972,0.1906,0.1892,0.1883,0.1942,0.1997,0.2063,0.217,0.2306,0.2286,0.2173,0.211,0.1916,0.1799,0.1793,0.2065,0.209,0.2113,0.205,0.1878,0.1878,0.1329,0.1325,0.1322]},{"header":{"parameterUnit":"m.s-1","parameterCategory":2,"la1":30.2991,"la2":30.254,"lo1":-89.0895,"lo2":-89.0444,"dy":0.0017,"dx":0.0017,"nx":28,"ny":28,"refTime":"2024-06-19T21:00:00:Z","depth":"0","parameterNumber":3,"parameterNumberName":"V-component_of_CURRENTS"},"data":[0,0,0,0,0,0,0,0,0,0,0,0,0,0,0,0,0,0,0,0,0,0,0,0,0,0,0,0,0,0,0,0,0,0,0,0,0,0,0,0,0,0,0,0,0,0,0,0,0,0,0,0,0,0,0,0,0,0,0.0093,0.0093,0,0.0115,0.0115,0.0115,0.0121,0.0121,0.0121,0.0121,0.0113,0.0113,0.0113,0,0,0,0,0,0,0,0,0,0,0,0,0,-0.0023,-0.0021,0.0093,0.0094,0.0094,0.0115,0.0115,0.0115,0.0121,0.0121,0.0121,0.0121,0.0113,0.0113,0.0113,0,0,0,0,0,0,0,0,0,0,0,0,0,0.0015,-0.002,0.0093,0.0101,0.0102,0.0115,0.0115,0.0115,0.0121,0.0121,0.0121,0.0121,0.0113,0.0113,0.0113,0.011,0,0,0.0112,0.0112,0,0,0,0,0,0,0,0,0.0013,0.0019,0.0099,0.01,0.0101,0.0117,0.0071,0.0112,0.0121,0.0112,0.0121,0.0121,0.0113,0.0112,0.0115,0.011,0.0109,0.0112,0.0112,0.0111,0.0111,0,0,0,0,0,0,0,0.001,0.0017,0.01,0.01,0.0101,0.0075,0.0081,0.0079,0.011,0.0113,0.0114,0.0119,0.0113,0.0115,0.0115,0.0109,0.0112,0.0111,0.0111,0.0111,0.011,0.011,0,0,0,0,0,0,0.0015,0.0016,0.01,0.0101,0.0058,0.0078,0.0085,0.011,0.0111,0.0112,0.0119,0.0119,0.0116,0.0115,0.0114,0.0129,0.0111,0.0111,0.0111,0.0109,0.011,0.011,0,0,0,0,0,0,0.0013,0.0023,0.0099,0.0058,0.0066,0.0081,0.0109,0.0111,0.0116,0.0116,0.0116,0.0123,0.0116,0.0115,0.0119,0.0128,0.0111,0.0111,0.0109,0.011,0.011,0.0146,0,0,0,0,0,0,0.001,0.0023,0.0035,0.006,0.0069,0.0112,0.0109,0.0111,0.012,0.012,0.0119,0.0118,0.0116,0.012,0.0119,0.0127,0.011,0.0109,0.0109,0.011,0.0145,0.0148,0.015,0,0,0,0,0,0.0006,0.0028,0.0036,0.0045,0.0089,0.0113,0.0115,0.0123,0.012,0.0126,0.0127,0.0119,0.0121,0.012,0.0119,0.0127,0.0109,0.0109,0.011,0.0144,0.0147,0.015,0,0,0,0,0,0,-0.0016,0.0032,0.0041,0.0077,0.0094,0.0114,0.0121,0.0124,0.0129,0.013,0.0124,0.0124,0.013,0.0121,0.012,0.0126,0.0112,0.0112,0.0138,0.0141,0.0144,0.0155,0.011,0,0,0,0,0,-0.0014,0.0017,0.005,0.0076,0.0089,0.0103,0.0111,0.0119,0.013,0.0133,0.0132,0.013,0.013,0.0131,0.0128,0.0133,0.012,0.0135,0.0138,0.014,0.0148,0.0132,0.0135,0.0111,0.0111,0.0111,0,0,-0.0015,0.0014,0.0031,0.0073,0.0088,0.0117,0.0108,0.0128,0.0148,0.013,0.015,0.0139,0.0132,0.0141,0.0142,0.0136,0.014,0.0141,0.0143,0.0149,0.0133,0.0135,0.0137,0.0111,0.0111,0.0111,0,0,0.0004,0.0026,0.0061,0.008,0.0109,0.012,0.0128,0.0152,0.0157,0.0173,0.0164,0.016,0.0162,0.016,0.0158,0.0172,0.0154,0.0168,0.0193,0.0178,0.018,0.0182,0.0169,0.0169,0.017,0.017,0.017,0,0.0002,0.0056,0.0069,0.0105,0.0126,0.0126,0.0164,0.017,0.0188,0.0199,0.0185,0.0186,0.0173,0.0186,0.0189,0.0179,0.0168,0.0184,0.0183,0.0184,0.0185,0.0171,0.0171,0.0172,0.0172,0.0172,0.0171,0,0.0053,0.0089,0.0109,0.0162,0.0178,0.0209,0.0226,0.0237,0.0238,0.0244,0.0252,0.023,0.0232,0.0222,0.021,0.0213,0.0202,0.0187,0.0177,0.019,0.0174,0.0173,0.0175,0.0174,0.0173,0.0173,0,0,0.0086,0.0138,0.0148,0.0181,0.0214,0.0241,0.0265,0.0298,0.0324,0.0311,0.0337,0.0315,0.0295,0.029,0.0267,0.0249,0.0238,0.0223,0.0222,0.0215,0.0208,0.0205,0.0203,0.0223,0.0223,0.0223,0.0195,0,0.0131,0.0202,0.0215,0.028,0.0322,0.0326,0.0354,0.0373,0.0378,0.0397,0.0362,0.037,0.0323,0.0322,0.0296,0.026,0.0238,0.0248,0.0193,0.0191,0.0191,0.0203,0.0238,0.0216,0.0194,0.0194,0.0193,0,0.0194,0.0233,0.0302,0.0356,0.0376,0.0404,0.0454,0.0481,0.0492,0.0493,0.0481,0.0451,0.0425,0.0377,0.0315,0.0325,0.0269,0.023,0.0228,0.0213,0.0187,0.0199,0.0215,0.015,0.0192,0.0192,0.0192,0,0.0234,0.0301,0.0356,0.0377,0.0431,0.0459,0.0485,0.0511,0.0551,0.0551,0.0574,0.0524,0.0516,0.0436,0.0348,0.0332,0.0279,0.0246,0.0189,0.0188,0.0202,0.0202,0.0154,0.0195,0.0195,0.0195,0.0195,0,0.0293,0.0341,0.0379,0.0415,0.0488,0.0503,0.0576,0.0594,0.0627,0.0691,0.0626,0.066,0.053,0.0482,0.0381,0.0293,0.0302,0.02,0.0183,0.0215,0.0217,0.0148,0.008,0.0194,0.0194,0.0195,0.0195,0,0.0339,0.0362,0.0435,0.049,0.0514,0.0566,0.0644,0.0697,0.0716,0.0794,0.0797,0.0766,0.0708,0.0578,0.0459,0.0354,0.0212,0.0217,0.0264,0.0253,0.013,0.0062,-0.0023,-0.0061,0.0148,0.0148,0.0148,0,0.0371,0.0412,0.049,0.0538,0.0567,0.0642,0.0702,0.0741,0.0806,0.0876,0.0924,0.0883,0.0889,0.0707,0.0512,0.0336,0.0229,0.023,0.0197,0.0136,0.0047,0.0006,-0.0023,0.0227,0.0228,0.0228,0.0228,0,0.0435,0.0457,0.0513,0.0605,0.0675,0.0764,0.0848,0.0913,0.0979,0.1049,0.1134,0.1141,0.098,0.0831,0.0574,0.0434,0.0184,0.0232,0.016,0.0099,0.006,0.0013,0.023,0.0232,0.0232,0.0231,0.0231,0.0231,0.0481,0.0527,0.0595,0.0684,0.0769,0.0878,0.0955,0.1052,0.1173,0.1286,0.1294,0.1343,0.1115,0.0782,0.0585,0.0254,0.0213,0.0151,0.0072,0.0036,0.0003,0.0229,0.0215,0.0215,0.0214,0.0214,0.0214,0,0.0542,0.059,0.0671,0.0779,0.0873,0.0909,0.1052,0.1134,0.1281,0.1397,0.1475,0.1436,0.115,0.0832,0.0381,0.0149,0.0059,0.0013,-0.0033,-0.0057,0.0149,0.0158,0.0143,0.0143,0.0143,0.0144,0.0144,0.0144,0.0578,0.0659,0.0695,0.0851,0.0926,0.1055,0.1138,0.1261,0.1372,0.1525,0.1593,0.1622,0.1425,0.0627,0.0126,-0.0008,-0.0163,-0.0203,-0.0295,-0.0146,-0.0139,-0.0131,-0.0135,-0.0211,-0.0212,-0.0434,-0.0436,-0.0438]}],[{"header":{"parameterUnit":"m.s-1","parameterCategory":2,"la1":30.2991,"la2":30.254,"lo1":-89.0895,"lo2":-89.0444,"dy":0.0017,"dx":0.0017,"nx":28,"ny":28,"refTime":"2024-06-19T21:00:00:Z","depth":"2","parameterNumber":2,"parameterNumberName":"U-component_of_CURRENTS"},"data":[0,0,0,0,0,0,0,0,0,0,0,0,0,0,0,0,0,0,0,0,0,0,0,0,0,0,0,0,0,0,0,0,0,0,0,0,0,0,0,0,0,0,0,0,0,0,0,0,0,0,0,0,0,0,0,0,0,0,0.2379,0.2379,0,0.2347,0.2347,0.2346,0.2325,0.2325,0.2325,0.2325,0.2304,0.2303,0.2303,0,0,0,0,0,0,0,0,0,0,0,0,0,0.241,0.241,0.2379,0.2379,0.2379,0.2347,0.2347,0.2346,0.2325,0.2325,0.2325,0.2325,0.2304,0.2303,0.2303,0,0,0,0,0,0,0,0,0,0,0,0,0,0.2387,0.2409,0.2379,0.2366,0.2364,0.2347,0.2347,0.2346,0.2325,0.2325,0.2325,0.2325,0.2304,0.2303,0.2302,0.2296,0,0,0.23,0.2299,0,0,0,0,0,0,0,0,0.2389,0.2386,0.2368,0.2367,0.2365,0.2342,0.235,0.233,0.2325,0.2337,0.2325,0.2325,0.2319,0.2317,0.2307,0.2295,0.2294,0.23,0.2299,0.2299,0.2298,0,0,0,0,0,0,0,0.239,0.2387,0.2364,0.2368,0.2366,0.2358,0.2354,0.2346,0.2327,0.2336,0.2335,0.2335,0.2318,0.2308,0.2307,0.2293,0.23,0.2299,0.2298,0.2298,0.2317,0.2318,0,0,0,0,0,0,0.2399,0.2389,0.2365,0.2363,0.238,0.2357,0.2354,0.2347,0.2326,0.2324,0.2335,0.2334,0.231,0.2308,0.2306,0.233,0.2299,0.2298,0.2297,0.2316,0.2317,0.2319,0,0,0,0,0,0,0.24,0.2397,0.2367,0.2377,0.2373,0.2357,0.235,0.2347,0.2345,0.2326,0.2323,0.2338,0.231,0.2307,0.231,0.2328,0.2297,0.2297,0.2315,0.2317,0.2318,0.2357,0,0,0,0,0,0,0.2401,0.2397,0.2401,0.2378,0.2373,0.2364,0.235,0.2346,0.2345,0.2344,0.2327,0.2325,0.231,0.2311,0.2309,0.2326,0.2296,0.2314,0.2316,0.2317,0.2354,0.236,0.2364,0,0,0,0,0,0.2402,0.2394,0.2401,0.2399,0.2377,0.2364,0.2361,0.2348,0.2346,0.2347,0.2339,0.2326,0.2323,0.2311,0.2308,0.2326,0.2313,0.2315,0.2317,0.2352,0.2359,0.2364,0,0,0,0,0,0,0.2396,0.2391,0.2398,0.2386,0.2386,0.2362,0.2359,0.2355,0.2349,0.235,0.2333,0.233,0.2345,0.233,0.2318,0.2339,0.2318,0.232,0.2346,0.2351,0.2356,0.2367,0.2295,0,0,0,0,0,0.2403,0.2402,0.2397,0.239,0.2391,0.2381,0.2377,0.2372,0.2361,0.2358,0.2349,0.2345,0.2351,0.2346,0.2347,0.2349,0.2355,0.2361,0.2366,0.2371,0.2378,0.2411,0.242,0.2326,0.2326,0.2326,0,0,0.2396,0.2396,0.2394,0.2392,0.2387,0.2388,0.2378,0.2373,0.2378,0.2358,0.2361,0.2365,0.2359,0.2369,0.2373,0.2356,0.24,0.2374,0.2377,0.2383,0.2415,0.2424,0.2432,0.2328,0.2328,0.2327,0,0,0.2382,0.2388,0.2386,0.2391,0.2397,0.2394,0.2399,0.2389,0.2391,0.2397,0.2395,0.241,0.2401,0.2407,0.2407,0.244,0.2433,0.2441,0.2463,0.2494,0.2502,0.2509,0.2528,0.2536,0.2433,0.2434,0.2434,0,0.238,0.2376,0.2383,0.2387,0.2394,0.2401,0.2404,0.2406,0.2401,0.2415,0.2405,0.2429,0.2423,0.2448,0.246,0.2452,0.2464,0.2438,0.2501,0.2508,0.2515,0.2532,0.2541,0.2436,0.2435,0.2435,0.2435,0,0.2363,0.2371,0.2369,0.2385,0.2395,0.2396,0.2411,0.2425,0.2435,0.2443,0.2478,0.2475,0.2491,0.2494,0.2483,0.2529,0.2521,0.2511,0.2485,0.2527,0.2542,0.255,0.2439,0.2438,0.2437,0.2437,0,0,0.2322,0.2355,0.2354,0.2369,0.2397,0.2396,0.2427,0.2454,0.2475,0.249,0.2521,0.254,0.2552,0.2554,0.2551,0.2572,0.2625,0.256,0.2561,0.2577,0.2692,0.2643,0.2647,0.2628,0.2629,0.2631,0.2683,0,0.2309,0.2323,0.2344,0.2359,0.237,0.2405,0.2429,0.2462,0.2491,0.2522,0.255,0.2575,0.257,0.2579,0.2607,0.2627,0.265,0.2612,0.2651,0.2652,0.2602,0.2656,0.2436,0.246,0.2691,0.2692,0.2693,0,0.228,0.23,0.2317,0.2361,0.2368,0.2382,0.2436,0.246,0.2523,0.2548,0.2596,0.2614,0.2663,0.2642,0.271,0.2687,0.2697,0.2705,0.2707,0.2654,0.2618,0.2457,0.2466,0.2707,0.2706,0.2705,0.2704,0,0.2242,0.2275,0.2292,0.2305,0.2355,0.2377,0.2408,0.247,0.2508,0.257,0.2611,0.2662,0.2701,0.2729,0.2761,0.2739,0.2829,0.2795,0.2761,0.2757,0.2573,0.255,0.2843,0.2843,0.2843,0.2843,0.2842,0,0.2214,0.2222,0.2276,0.2282,0.2307,0.2355,0.2393,0.2436,0.2514,0.2561,0.2622,0.267,0.2729,0.2786,0.2789,0.2814,0.2858,0.2781,0.2775,0.258,0.2558,0.2772,0.2763,0.2844,0.2844,0.2844,0.2843,0,0.2162,0.2196,0.2215,0.2271,0.2287,0.2306,0.2385,0.2415,0.2501,0.2569,0.2595,0.2706,0.2775,0.2826,0.2879,0.2856,0.287,0.2864,0.2629,0.2595,0.2764,0.2757,0.2821,0.282,0.2819,0.2818,0.2817,0,0.2135,0.2142,0.2195,0.2209,0.2231,0.2273,0.2302,0.2392,0.2435,0.2579,0.2606,0.2719,0.2764,0.2845,0.2823,0.2827,0.2877,0.2617,0.2531,0.2778,0.2766,0.276,0.2754,0.2299,0.2294,0.229,0.2287,0,0.2091,0.2111,0.2133,0.2163,0.2188,0.2215,0.2269,0.2305,0.2412,0.2474,0.2563,0.2616,0.2711,0.2619,0.2648,0.2615,0.2595,0.2536,0.2866,0.2345,0.2292,0.2279,0.2289,0.2252,0.2255,0.2258,0.226,0.2261,0.2058,0.206,0.2092,0.2105,0.2132,0.2142,0.2133,0.2197,0.2243,0.2303,0.2433,0.2432,0.2467,0.2394,0.2322,0.2265,0.244,0.2307,0.2317,0.2331,0.2268,0.2217,0.215,0.2153,0.2155,0.2157,0.2159,0,0.2007,0.2015,0.2032,0.2036,0.2019,0.2063,0.2089,0.206,0.2054,0.2137,0.2181,0.2034,0.1978,0.2009,0.1868,0.1868,0.1825,0.1784,0.1696,0.1735,0.1768,0.1672,0.1398,0.1395,0.1393,0.1391,0,0,0.1984,0.1969,0.1966,0.1912,0.191,0.1854,0.1841,0.1817,0.184,0.1807,0.1782,0.1921,0.1974,0.167,0.1628,0.1484,0.1597,0.1428,0.2045,0.1983,0.2013,0.2085,0.1984,0,0,0,0,0]},{"header":{"parameterUnit":"m.s-1","parameterCategory":2,"la1":30.2991,"la2":30.254,"lo1":-89.0895,"lo2":-89.0444,"dy":0.0017,"dx":0.0017,"nx":28,"ny":28,"refTime":"2024-06-19T21:00:00:Z","depth":"2","parameterNumber":3,"parameterNumberName":"V-component_of_CURRENTS"},"data":[0,0,0,0,0,0,0,0,0,0,0,0,0,0,0,0,0,0,0,0,0,0,0,0,0,0,0,0,0,0,0,0,0,0,0,0,0,0,0,0,0,0,0,0,0,0,0,0,0,0,0,0,0,0,0,0,0,0,0.0107,0.0107,0,0.0121,0.0121,0.0121,0.0126,0.0126,0.0126,0.0126,0.0119,0.0119,0.0119,0,0,0,0,0,0,0,0,0,0,0,0,0,0.0094,0.0094,0.0107,0.0107,0.0107,0.0121,0.0121,0.0121,0.0126,0.0126,0.0126,0.0126,0.012,0.0119,0.0119,0,0,0,0,0,0,0,0,0,0,0,0,0,0.0102,0.0094,0.0107,0.0112,0.0113,0.0121,0.0121,0.0121,0.0126,0.0126,0.0126,0.0126,0.012,0.0119,0.0119,0.0117,0,0,0.0118,0.0118,0,0,0,0,0,0,0,0,0.0101,0.0102,0.0111,0.0112,0.0113,0.0122,0.0114,0.0119,0.0126,0.012,0.0126,0.0126,0.0119,0.0119,0.012,0.0116,0.0116,0.0118,0.0118,0.0118,0.0118,0,0,0,0,0,0,0,0.0101,0.0102,0.0112,0.0111,0.0112,0.0117,0.0118,0.0115,0.0118,0.0121,0.0121,0.0124,0.0119,0.0121,0.012,0.0116,0.0118,0.0118,0.0118,0.0118,0.0118,0.0119,0,0,0,0,0,0,0.01,0.0101,0.0111,0.0112,0.0108,0.0117,0.0118,0.0118,0.0119,0.0119,0.0124,0.0124,0.0121,0.0121,0.012,0.0136,0.0118,0.0118,0.0117,0.0118,0.0118,0.0119,0,0,0,0,0,0,0.01,0.0101,0.0111,0.0108,0.0109,0.0117,0.0118,0.0119,0.0123,0.0122,0.0121,0.0127,0.0121,0.012,0.0126,0.0135,0.0117,0.0117,0.0118,0.0118,0.0119,0.0155,0,0,0,0,0,0,0.0099,0.0101,0.0096,0.0108,0.011,0.0121,0.0118,0.0119,0.0125,0.0125,0.0124,0.0123,0.0121,0.0126,0.0125,0.0134,0.0117,0.0118,0.0118,0.0119,0.0153,0.0156,0.0159,0,0,0,0,0,0.0099,0.0097,0.0096,0.0097,0.0104,0.0121,0.0123,0.0128,0.0125,0.013,0.0131,0.0124,0.0128,0.0126,0.0125,0.0134,0.0118,0.0118,0.0118,0.0152,0.0156,0.0159,0,0,0,0,0,0,0.0092,0.0098,0.0096,0.0097,0.0109,0.0122,0.0127,0.0129,0.0133,0.0134,0.0129,0.0129,0.0136,0.0128,0.0126,0.0134,0.012,0.012,0.0146,0.0149,0.0152,0.0162,0.0117,0,0,0,0,0,0.0087,0.0084,0.0097,0.0097,0.0106,0.0115,0.012,0.0127,0.0135,0.0137,0.0137,0.0135,0.0136,0.0138,0.0136,0.0142,0.0128,0.0144,0.0147,0.015,0.0156,0.0142,0.0145,0.012,0.012,0.012,0,0,0.0083,0.0087,0.0083,0.0095,0.0105,0.0128,0.0119,0.0133,0.0151,0.0135,0.0154,0.0145,0.0139,0.0149,0.015,0.0144,0.0149,0.015,0.0153,0.0158,0.0143,0.0146,0.0148,0.012,0.012,0.012,0,0,0.009,0.0081,0.0091,0.0105,0.0124,0.0132,0.0138,0.0155,0.0161,0.0175,0.0168,0.0166,0.0168,0.0169,0.0168,0.0183,0.0163,0.0178,0.0203,0.0189,0.0191,0.0193,0.0177,0.0176,0.018,0.0181,0.0181,0,0.0087,0.0105,0.0097,0.0122,0.0141,0.0138,0.017,0.0175,0.0189,0.02,0.0187,0.0191,0.018,0.0195,0.0199,0.019,0.0177,0.0193,0.0193,0.0195,0.0196,0.0179,0.0178,0.0182,0.0182,0.0182,0.0182,0,0.0116,0.0131,0.0143,0.0171,0.0185,0.021,0.0224,0.0236,0.0237,0.0243,0.0253,0.0235,0.0239,0.023,0.0219,0.0225,0.0211,0.0198,0.0187,0.0201,0.0181,0.018,0.0185,0.0184,0.0184,0.0183,0,0,0.0119,0.0155,0.0162,0.0192,0.0217,0.0239,0.0264,0.0294,0.0319,0.0308,0.0334,0.0317,0.0299,0.0296,0.0275,0.0259,0.0248,0.0233,0.0232,0.0221,0.0216,0.0202,0.0199,0.0235,0.0235,0.0235,0.0198,0,0.0154,0.0208,0.0215,0.0273,0.0309,0.0315,0.0344,0.0363,0.0369,0.0388,0.036,0.0369,0.0327,0.0325,0.0303,0.0268,0.0247,0.0259,0.0201,0.0199,0.0189,0.0198,0.021,0.0178,0.0197,0.0197,0.0197,0,0.0195,0.0227,0.0288,0.0342,0.0359,0.0386,0.0437,0.0463,0.0476,0.0479,0.0469,0.0442,0.042,0.0377,0.0317,0.0327,0.0274,0.0237,0.0235,0.0211,0.0184,0.0168,0.0175,0.0194,0.0194,0.0195,0.0195,0,0.0227,0.0285,0.0336,0.0355,0.0409,0.0437,0.0464,0.0492,0.0529,0.0532,0.0552,0.0509,0.05,0.0426,0.0341,0.0329,0.0271,0.0246,0.0183,0.0181,0.0175,0.0172,0.0199,0.0199,0.0199,0.02,0.02,0,0.0273,0.0317,0.0355,0.0389,0.0459,0.0475,0.0546,0.0565,0.0598,0.0654,0.0599,0.0624,0.0511,0.0462,0.0367,0.0277,0.029,0.0192,0.0174,0.0187,0.0186,0.0187,0.0186,0.0198,0.0198,0.0199,0.0199,0,0.0311,0.0333,0.0401,0.0456,0.048,0.0531,0.0606,0.0655,0.0674,0.0742,0.0744,0.0714,0.0653,0.0535,0.0422,0.0327,0.023,0.0191,0.0212,0.0197,0.014,0.0141,0.0118,0.0117,0.0117,0.0116,0.0116,0,0.0336,0.0374,0.0451,0.0495,0.0525,0.0596,0.0653,0.0694,0.0751,0.0808,0.0848,0.0802,0.0793,0.0617,0.0439,0.0272,0.0242,0.0159,0.0136,0.0148,0.0133,0.0135,0.0137,0.0138,0.0138,0.0138,0.0137,0,0.039,0.0413,0.0466,0.0551,0.0617,0.0701,0.078,0.0836,0.0896,0.0951,0.1011,0.1003,0.0845,0.0684,0.0445,0.0323,0.0184,0.015,0.0165,0.0158,0.0164,0.015,0.0152,0.0136,0.0136,0.0136,0.0136,0.0136,0.0429,0.0471,0.0534,0.0618,0.0696,0.0794,0.0863,0.0946,0.1046,0.1127,0.1124,0.1118,0.0928,0.0632,0.0422,0.0186,0.0199,0.0103,0.0104,0.0106,0.0116,0.0121,0.0087,0.0086,0.0086,0.0086,0.0086,0,0.0478,0.0522,0.0596,0.0695,0.0778,0.0815,0.0943,0.1009,0.1124,0.1195,0.1239,0.1067,0.0892,0.0666,0.0331,0.0133,0.011,0.0053,0.0074,0.0077,0.0079,0.0089,0.0051,0.005,0.005,0.0049,0,0,0.0507,0.0577,0.0609,0.0743,0.0813,0.0926,0.0998,0.1098,0.1173,0.1237,0.1238,0.1222,0.0967,0.0717,0.0447,0.0252,0.0204,0.0202,0.0251,0.0311,0.0315,0.0129,0.0149,0,0,0,0,0]}],[{"header":{"parameterUnit":"m.s-1","parameterCategory":2,"la1":30.2991,"la2":30.254,"lo1":-89.0895,"lo2":-89.0444,"dy":0.0017,"dx":0.0017,"nx":28,"ny":28,"refTime":"2024-06-19T21:00:00:Z","depth":"4","parameterNumber":2,"parameterNumberName":"U-component_of_CURRENTS"},"data":[0,0,0,0,0,0,0,0,0,0,0,0,0,0,0,0,0,0,0,0,0,0,0,0,0,0,0,0,0,0,0,0,0,0,0,0,0,0,0,0,0,0,0,0,0,0,0,0,0,0,0,0,0,0,0,0,0,0,0.169,0.169,0,0.1731,0.1731,0.1732,0.1771,0.1771,0.1772,0.1773,0.182,0.182,0.1821,0,0,0,0,0,0,0,0,0,0,0,0,0,0.1557,0.156,0.169,0.169,0.1691,0.1731,0.1731,0.1732,0.177,0.1771,0.1772,0.1773,0.182,0.182,0.1821,0,0,0,0,0,0,0,0,0,0,0,0,0,0.1605,0.1561,0.1689,0.1718,0.1722,0.1731,0.1731,0.1732,0.177,0.1771,0.1773,0.1774,0.182,0.182,0.1821,0.18,0,0,0.1823,0.1823,0,0,0,0,0,0,0,0,0.1602,0.1609,0.1713,0.1716,0.172,0.175,0.1702,0.1756,0.177,0.1748,0.1773,0.1775,0.1799,0.1801,0.1801,0.1802,0.1804,0.1823,0.1824,0.1824,0.1824,0,0,0,0,0,0,0,0.1599,0.1607,0.1702,0.1714,0.1718,0.17,0.1708,0.1712,0.1763,0.175,0.1754,0.1764,0.18,0.18,0.1802,0.1805,0.1823,0.1824,0.1824,0.1824,0.1895,0.1896,0,0,0,0,0,0,0.1605,0.1605,0.1701,0.1704,0.1667,0.1702,0.1711,0.1736,0.1763,0.1769,0.1763,0.1766,0.1798,0.1801,0.1804,0.1872,0.1824,0.1825,0.1825,0.1893,0.1895,0.1896,0,0,0,0,0,0,0.1603,0.1614,0.1699,0.1657,0.1667,0.1704,0.1731,0.1737,0.1772,0.1773,0.1779,0.1798,0.1799,0.1803,0.1839,0.1871,0.1825,0.1825,0.1891,0.1894,0.1896,0.195,0,0,0,0,0,0,0.1599,0.1613,0.1646,0.1658,0.167,0.1727,0.173,0.1737,0.1777,0.1782,0.1805,0.1808,0.18,0.1838,0.184,0.1871,0.1826,0.189,0.1892,0.1895,0.1946,0.1954,0.196,0,0,0,0,0,0.1594,0.1625,0.1648,0.166,0.1711,0.1729,0.1733,0.1759,0.1778,0.1795,0.1816,0.1809,0.1857,0.184,0.1842,0.1874,0.1888,0.1892,0.1895,0.1943,0.1952,0.196,0,0,0,0,0,0,0.1579,0.1632,0.1657,0.1704,0.1729,0.1737,0.1762,0.1778,0.1807,0.1824,0.1823,0.1828,0.1875,0.1866,0.1847,0.1903,0.1873,0.1877,0.191,0.1918,0.1925,0.1925,0.1827,0,0,0,0,0,0.1594,0.164,0.1672,0.1713,0.173,0.1754,0.1772,0.179,0.1811,0.1827,0.1844,0.1863,0.1882,0.1895,0.1908,0.1932,0.193,0.1956,0.1963,0.1969,0.1971,0.2,0.201,0.1907,0.1907,0.1907,0,0,0.1601,0.1637,0.1664,0.1715,0.1738,0.1761,0.1768,0.1805,0.1829,0.1825,0.1875,0.1892,0.1896,0.193,0.1949,0.193,0.1998,0.1973,0.1978,0.1976,0.2005,0.2015,0.2023,0.1909,0.1909,0.1909,0,0,0.1615,0.167,0.1706,0.1731,0.1778,0.1789,0.1809,0.1841,0.1868,0.1907,0.1917,0.1955,0.1979,0.1989,0.1995,0.2046,0.2038,0.2058,0.2087,0.2116,0.2125,0.2132,0.2143,0.2151,0.2056,0.2056,0.2056,0,0.1625,0.1674,0.1715,0.1745,0.1771,0.1807,0.1834,0.1858,0.1899,0.1925,0.1935,0.1996,0.2005,0.2041,0.2062,0.2062,0.2072,0.2054,0.2125,0.2132,0.2139,0.2149,0.2157,0.2059,0.2058,0.2058,0.2058,0,0.1648,0.1699,0.1719,0.1776,0.1805,0.1837,0.1874,0.1914,0.1953,0.1977,0.2042,0.2057,0.2092,0.2105,0.2099,0.2154,0.2145,0.2135,0.2102,0.2152,0.2159,0.2167,0.2063,0.2062,0.2061,0.206,0,0,0.164,0.1723,0.1733,0.1763,0.1829,0.1846,0.1902,0.1952,0.199,0.2042,0.2091,0.2135,0.2159,0.2167,0.2174,0.2198,0.2256,0.2191,0.2191,0.2199,0.2317,0.2164,0.2157,0.2265,0.2266,0.2268,0.2303,0,0.1649,0.1707,0.1749,0.1801,0.183,0.1884,0.1925,0.1978,0.2029,0.2082,0.2124,0.2172,0.2177,0.2203,0.2233,0.2255,0.2279,0.2247,0.227,0.2271,0.2125,0.2161,0.2273,0.2308,0.231,0.2311,0.2312,0,0.165,0.1692,0.1748,0.1817,0.1836,0.1875,0.1953,0.1995,0.2075,0.2118,0.2181,0.2213,0.2272,0.2262,0.2329,0.2313,0.2323,0.2331,0.2332,0.2172,0.213,0.2248,0.2325,0.2324,0.2323,0.2322,0.2322,0,0.1604,0.1685,0.1732,0.1757,0.184,0.1884,0.1934,0.2016,0.2062,0.215,0.2197,0.2261,0.2313,0.2341,0.2373,0.2361,0.2432,0.2411,0.2279,0.2269,0.2373,0.2364,0.2451,0.2451,0.2451,0.2451,0.2451,0,0.1579,0.1618,0.1721,0.1743,0.1799,0.187,0.1937,0.1995,0.2087,0.2135,0.2219,0.2257,0.2341,0.2389,0.2394,0.2358,0.2453,0.2285,0.2267,0.2395,0.2389,0.2378,0.2369,0.2452,0.2452,0.2452,0.2451,0,0.1515,0.1585,0.1641,0.1744,0.178,0.1823,0.1939,0.1977,0.2081,0.2148,0.2182,0.2288,0.2334,0.2391,0.244,0.2373,0.2356,0.232,0.2456,0.2447,0.2166,0.216,0.2159,0.2154,0.215,0.2146,0.2143,0,0.1483,0.151,0.1629,0.1666,0.1721,0.1801,0.1848,0.1961,0.2002,0.2139,0.2154,0.2252,0.2299,0.2246,0.2315,0.2303,0.2279,0.2252,0.2197,0.2153,0.2137,0.2138,0.2137,0.2136,0.2135,0.2134,0.2133,0,0.1421,0.1482,0.153,0.1609,0.1672,0.1725,0.1807,0.1824,0.194,0.2054,0.2064,0.2075,0.2124,0.2142,0.2156,0.2145,0.2254,0.2206,0.2214,0.2162,0.2125,0.2114,0.2118,0.2117,0.212,0.2121,0.2122,0,0.1381,0.14,0.1478,0.1529,0.1604,0.1625,0.1679,0.1717,0.1769,0.1909,0.1906,0.2001,0.2101,0.2061,0.2071,0.2049,0.2008,0.193,0.1952,0.1969,0.1888,0.1813,0.1693,0,0,0,0,0,0.133,0.134,0.1388,0.1435,0.1503,0.1544,0.1635,0.169,0.1799,0.1755,0.1823,0.1847,0.1848,0.1901,0.1837,0.1992,0.2027,0.1909,0.1952,0.2034,0.2051,0.1973,0,0,0,0,0,0,0.1297,0.1343,0.1354,0.1344,0.1354,0.1412,0.1464,0.1542,0.1521,0.1637,0.1649,0.173,0.1766,0.1863,0.18,0.1815,0.18,0.1969,0.1964,0.2024,0.204,0.2054,0.1979,0,0,0,0,0]},{"header":{"parameterUnit":"m.s-1","parameterCategory":2,"la1":30.2991,"la2":30.254,"lo1":-89.0895,"lo2":-89.0444,"dy":0.0017,"dx":0.0017,"nx":28,"ny":28,"refTime":"2024-06-19T21:00:00:Z","depth":"4","parameterNumber":3,"parameterNumberName":"V-component_of_CURRENTS"},"data":[0,0,0,0,0,0,0,0,0,0,0,0,0,0,0,0,0,0,0,0,0,0,0,0,0,0,0,0,0,0,0,0,0,0,0,0,0,0,0,0,0,0,0,0,0,0,0,0,0,0,0,0,0,0,0,0,0,0,0.0131,0.0131,0,0.0139,0.0139,0.0139,0.0146,0.0146,0.0146,0.0146,0.0146,0.0146,0.0146,0,0,0,0,0,0,0,0,0,0,0,0,0,0.0139,0.0139,0.0131,0.0131,0.0132,0.0139,0.0139,0.0139,0.0146,0.0146,0.0146,0.0146,0.0146,0.0146,0.0146,0,0,0,0,0,0,0,0,0,0,0,0,0,0.014,0.0139,0.0131,0.0136,0.0136,0.0139,0.0139,0.0139,0.0146,0.0146,0.0146,0.0146,0.0146,0.0146,0.0146,0.0143,0,0,0.0146,0.0146,0,0,0,0,0,0,0,0,0.014,0.014,0.0135,0.0135,0.0136,0.0141,0.0142,0.014,0.0146,0.0142,0.0146,0.0146,0.0144,0.0144,0.0145,0.0143,0.0143,0.0146,0.0145,0.0145,0.0145,0,0,0,0,0,0,0,0.014,0.014,0.0134,0.0135,0.0136,0.0143,0.0143,0.0142,0.0142,0.0142,0.0143,0.0144,0.0144,0.0145,0.0145,0.0143,0.0146,0.0145,0.0145,0.0145,0.0151,0.0152,0,0,0,0,0,0,0.0138,0.014,0.0134,0.0135,0.0138,0.0143,0.0143,0.014,0.0142,0.0143,0.0143,0.0144,0.0145,0.0145,0.0145,0.0163,0.0145,0.0145,0.0145,0.0151,0.0151,0.0152,0,0,0,0,0,0,0.0138,0.0137,0.0134,0.0138,0.0138,0.0142,0.0139,0.014,0.0144,0.0143,0.0144,0.0147,0.0145,0.0145,0.0153,0.0163,0.0145,0.0145,0.0151,0.0151,0.0152,0.0186,0,0,0,0,0,0,0.0138,0.0137,0.0133,0.0137,0.0137,0.014,0.0139,0.014,0.0144,0.0145,0.0146,0.0146,0.0145,0.0153,0.0152,0.0162,0.0145,0.0151,0.0151,0.0151,0.0185,0.0188,0.019,0,0,0,0,0,0.0138,0.0135,0.0132,0.0132,0.0131,0.0141,0.0142,0.0145,0.0144,0.0149,0.0152,0.0147,0.0155,0.0153,0.0153,0.0162,0.015,0.0151,0.0151,0.0183,0.0187,0.019,0,0,0,0,0,0,0.014,0.0135,0.0133,0.0128,0.0135,0.0142,0.0145,0.0147,0.0153,0.0154,0.0152,0.0152,0.0162,0.0155,0.0153,0.0164,0.0151,0.0151,0.0175,0.0178,0.0181,0.0188,0.0145,0,0,0,0,0,0.0136,0.0129,0.0133,0.013,0.0134,0.0139,0.0143,0.0147,0.0153,0.0156,0.0158,0.0159,0.0162,0.0165,0.0165,0.0172,0.0158,0.0177,0.0179,0.0182,0.0186,0.0175,0.0177,0.0153,0.0153,0.0153,0,0,0.0134,0.0132,0.0126,0.0129,0.0135,0.0151,0.0142,0.0151,0.0167,0.0154,0.0174,0.0168,0.0165,0.0177,0.018,0.0174,0.018,0.0182,0.0185,0.0188,0.0175,0.0178,0.018,0.0154,0.0154,0.0153,0,0,0.0138,0.0128,0.013,0.0139,0.0149,0.0155,0.0159,0.017,0.0177,0.0191,0.0187,0.0189,0.0194,0.0197,0.0198,0.0213,0.0193,0.021,0.0232,0.0221,0.0222,0.0224,0.0204,0.0203,0.0212,0.0212,0.0212,0,0.0138,0.0144,0.0134,0.0149,0.0163,0.0161,0.0184,0.0189,0.0201,0.0212,0.0202,0.0212,0.0205,0.0222,0.0227,0.022,0.0206,0.0222,0.0225,0.0226,0.0227,0.0206,0.0205,0.0214,0.0214,0.0214,0.0213,0,0.0153,0.0162,0.0169,0.0185,0.0197,0.0215,0.0227,0.0239,0.0243,0.025,0.0264,0.0252,0.0259,0.0254,0.0246,0.0253,0.0237,0.0229,0.0218,0.0231,0.0208,0.0207,0.0216,0.0216,0.0215,0.0215,0,0,0.0149,0.0173,0.0178,0.0202,0.0221,0.0239,0.0262,0.0289,0.0312,0.0307,0.0332,0.0325,0.0312,0.0311,0.0296,0.0284,0.0272,0.026,0.0259,0.0243,0.024,0.0216,0.0212,0.0264,0.0264,0.0264,0.0219,0,0.0171,0.0208,0.0214,0.0261,0.0287,0.0298,0.0325,0.0345,0.0354,0.0374,0.0356,0.0368,0.0336,0.0337,0.032,0.0289,0.027,0.0285,0.0227,0.0225,0.0205,0.021,0.0265,0.0218,0.0217,0.0217,0.0217,0,0.0193,0.0217,0.0264,0.0314,0.0328,0.0354,0.0403,0.0428,0.0445,0.045,0.0447,0.0428,0.0413,0.0379,0.0328,0.0338,0.0291,0.0259,0.0256,0.0222,0.0198,0.0202,0.0213,0.0214,0.0214,0.0214,0.0214,0,0.0211,0.0258,0.03,0.0316,0.0366,0.0394,0.0423,0.0453,0.0486,0.0496,0.0512,0.0482,0.0476,0.0415,0.0339,0.0334,0.0274,0.026,0.0193,0.019,0.021,0.0209,0.0219,0.0219,0.0219,0.0219,0.0219,0,0.0238,0.0274,0.0314,0.034,0.0404,0.0424,0.0488,0.0511,0.0543,0.0586,0.0552,0.0565,0.0484,0.0437,0.0357,0.027,0.0286,0.0197,0.0179,0.0224,0.0225,0.0208,0.0207,0.0217,0.0218,0.0218,0.0218,0,0.0256,0.0279,0.0336,0.0392,0.0417,0.0463,0.0537,0.0578,0.0602,0.0653,0.0656,0.0632,0.057,0.0478,0.038,0.0303,0.0215,0.0177,0.0229,0.0215,0.0131,0.0133,0.01,0.0099,0.0098,0.0097,0.0096,0,0.0268,0.0298,0.0373,0.0413,0.0443,0.0511,0.0562,0.0607,0.065,0.0693,0.0716,0.0675,0.064,0.0487,0.0383,0.0226,0.0199,0.0143,0.0135,0.0134,0.012,0.0123,0.0126,0.0095,0.0094,0.0094,0.0094,0,0.0296,0.0322,0.0367,0.0444,0.0505,0.0579,0.0648,0.0682,0.0734,0.0755,0.076,0.0683,0.0615,0.0488,0.0366,0.0253,0.0174,0.0132,0.0133,0.0126,0.0127,0.0115,0.0119,0.009,0.0091,0.0091,0.0091,0,0.0317,0.035,0.0405,0.0476,0.0552,0.0623,0.0661,0.0708,0.0752,0.0788,0.0786,0.0712,0.0672,0.0503,0.0392,0.0276,0.0241,0.0187,0.0185,0.0187,0.022,0.0236,0.0219,0,0,0,0,0,0.0335,0.037,0.0432,0.0508,0.058,0.0625,0.071,0.0739,0.0785,0.079,0.0789,0.0721,0.0565,0.0506,0.0385,0.0363,0.0214,0.0215,0.015,0.0072,0.0075,0.0096,0,0,0,0,0,0,0.0347,0.0402,0.0428,0.0518,0.0569,0.0653,0.0708,0.0741,0.0743,0.0768,0.0692,0.0666,0.052,0.063,0.0374,0.0343,0.0278,0.0151,0.0148,0.0069,0.0073,0.0076,0.0099,0,0,0,0,0]}]]